�������l�o���
Date,Time,MP-1(��Sv/h),MP-2(��Sv/h),MP-3(��Sv/h),MP-4(��Sv/h),MP-5(��Sv/h),MP-6(��Sv/h),MP-7(��Sv/h),����,����(m/s),���J
2015/04/27,00:00,0.546,0.335,0.576,0.537,0.560,0.254,0.228,��쐼,3.3,��
2015/04/27,00:10,0.544,0.331,0.576,0.534,0.559,0.253,0.227,��쐼,3.2,��
2015/04/27,00:20,0.547,0.333,0.573,0.539,0.559,0.253,0.227,��쐼,3.4,��
2015/04/27,00:30,0.544,0.334,0.579,0.535,0.562,0.255,0.227,�쐼,3.6,��
2015/04/27,00:40,0.549,0.331,0.576,0.539,0.559,0.252,0.228,��쐼,3.6,��
2015/04/27,00:50,0.543,0.334,0.577,0.536,0.562,0.254,0.227,�쐼,4.2,��
2015/04/27,01:00,0.544,0.331,0.572,0.538,0.560,0.253,0.227,��쐼,3.4,��
2015/04/27,01:10,0.547,0.331,0.579,0.536,0.560,0.254,0.227,��쐼,3.8,��
2015/04/27,01:20,0.542,0.335,0.576,0.535,0.559,0.255,0.228,��쐼,4.1,��
2015/04/27,01:30,0.548,0.332,0.575,0.536,0.558,0.254,0.226,��쐼,3.8,��
2015/04/27,01:40,0.543,0.333,0.576,0.535,0.561,0.252,0.228,��쐼,3.6,��
2015/04/27,01:50,0.547,0.332,0.576,0.539,0.557,0.253,0.227,��,3.6,��
2015/04/27,02:00,0.543,0.332,0.577,0.537,0.561,0.253,0.227,��쐼,3.8,��
2015/04/27,02:10,0.546,0.333,0.576,0.535,0.557,0.254,0.227,��쐼,5.0,��
2015/04/27,02:20,0.542,0.331,0.578,0.537,0.558,0.252,0.227,��쐼,5.1,��
2015/04/27,02:30,0.545,0.331,0.573,0.535,0.560,0.253,0.227,�쐼,5.8,��
2015/04/27,02:40,0.543,0.333,0.576,0.539,0.557,0.254,0.227,��쐼,6.0,��
2015/04/27,02:50,0.542,0.331,0.576,0.537,0.560,0.254,0.228,�쐼,6.7,��
2015/04/27,03:00,0.547,0.335,0.580,0.538,0.558,0.253,0.228,�쐼,6.9,��
2015/04/27,03:10,0.543,0.333,0.577,0.536,0.559,0.254,0.227,�쐼,7.3,��
2015/04/27,03:20,0.547,0.333,0.576,0.536,0.556,0.254,0.227,�쐼,7.3,��
2015/04/27,03:30,0.542,0.335,0.578,0.538,0.558,0.253,0.226,�쐼,8.1,��
2015/04/27,03:40,0.545,0.332,0.577,0.536,0.559,0.255,0.227,�쐼,8.7,��
2015/04/27,03:50,0.541,0.332,0.577,0.537,0.559,0.253,0.228,�쐼,8.6,��
2015/04/27,04:00,0.543,0.333,0.575,0.537,0.559,0.254,0.227,�쐼,8.6,��
2015/04/27,04:10,0.545,0.331,0.579,0.536,0.555,0.254,0.228,�쐼,8.1,��
2015/04/27,04:20,0.542,0.333,0.574,0.536,0.560,0.255,0.227,�쐼,9.2,��
2015/04/27,04:30,0.545,0.334,0.579,0.535,0.554,0.254,0.229,�쐼,7.6,��
2015/04/27,04:40,0.543,0.331,0.573,0.538,0.562,0.254,0.228,�쐼,6.8,��
2015/04/27,04:50,0.546,0.332,0.577,0.534,0.557,0.254,0.227,��쐼,7.9,��
2015/04/27,05:00,0.542,0.332,0.574,0.536,0.563,0.254,0.226,��쐼,7.1,��
2015/04/27,05:10,0.547,0.334,0.576,0.538,0.556,0.253,0.228,�쐼,6.0,��
2015/04/27,05:20,0.543,0.333,0.576,0.533,0.561,0.254,0.227,��쐼,6.6,��
2015/04/27,05:30,0.544,0.333,0.575,0.537,0.557,0.254,0.228,�쐼,5.5,��
2015/04/27,05:40,0.547,0.333,0.578,0.535,0.560,0.253,0.227,��쐼,4.2,��
2015/04/27,05:50,0.542,0.332,0.575,0.537,0.557,0.252,0.227,�쐼,4.3,��
2015/04/27,06:00,0.546,0.331,0.578,0.534,0.560,0.254,0.226,�쐼,3.9,��
2015/04/27,06:10,0.542,0.335,0.576,0.537,0.558,0.253,0.228,�쐼,6.4,��
2015/04/27,06:20,0.545,0.333,0.579,0.537,0.560,0.253,0.226,�쐼,7.3,��
2015/04/27,06:30,0.546,0.333,0.577,0.534,0.555,0.254,0.227,�쐼,7.0,��
2015/04/27,06:40,0.544,0.334,0.575,0.539,0.560,0.254,0.225,�쐼,6.0,��
2015/04/27,06:50,0.544,0.331,0.577,0.533,0.552,0.255,0.227,��쐼,5.1,��
2015/04/27,07:00,0.543,0.332,0.576,0.535,0.564,0.253,0.227,��쐼,3.6,��
2015/04/27,07:10,0.545,0.330,0.570,0.535,0.556,0.254,0.225,��쐼,3.1,��
2015/04/27,07:20,0.542,0.332,0.575,0.529,0.560,0.254,0.225,��쐼,4.2,��
2015/04/27,07:30,0.545,0.332,0.575,0.532,0.559,0.255,0.227,��쐼,4.7,��
2015/04/27,07:40,0.542,0.329,0.573,0.535,0.556,0.253,0.227,��쐼,4.2,��
2015/04/27,07:50,0.543,0.330,0.579,0.529,0.563,0.254,0.224,��쐼,5.4,��
2015/04/27,08:00,0.545,0.333,0.575,0.528,0.557,0.254,0.225,��,4.9,��
2015/04/27,08:10,0.540,0.332,0.575,0.529,0.557,0.253,0.228,��,5.4,��
2015/04/27,08:20,0.543,0.329,0.580,0.535,0.561,0.255,0.227,��,5.6,��
2015/04/27,08:30,0.540,0.329,0.573,0.535,0.556,0.254,0.225,��,6.1,��
2015/04/27,08:40,0.537,0.332,0.578,0.531,0.554,0.252,0.227,��,5.6,��
2015/04/27,08:50,0.535,0.333,0.578,0.531,0.560,0.253,0.228,��쐼,5.9,��
2015/04/27,09:00,0.545,0.330,0.574,0.530,0.562,0.254,0.227,��,6.1,��
2015/04/27,09:10,0.546,0.330,0.581,0.529,0.557,0.253,0.225,��,5.3,��
2015/04/27,09:20,0.540,0.329,0.577,0.530,0.554,0.252,0.227,��쐼,6.3,��
2015/04/27,09:30,0.538,0.329,0.573,0.531,0.554,0.253,0.227,��,6.3,��
2015/04/27,09:40,0.537,0.333,0.578,0.534,0.553,0.253,0.228,��,6.5,��
2015/04/27,09:50,0.546,0.335,0.580,0.534,0.555,0.254,0.225,��,7.3,��
2015/04/27,10:00,0.546,0.332,0.574,0.534,0.562,0.252,0.226,��,6.2,��
2015/04/27,10:10,0.545,0.330,0.572,0.534,0.563,0.252,0.228,��,6.4,��
2015/04/27,10:20,0.542,0.330,0.580,0.535,0.559,0.253,0.228,��,7.0,��
2015/04/27,10:30,0.539,0.329,0.581,0.533,0.556,0.254,0.226,��쐼,8.5,��
2015/04/27,10:40,0.539,0.334,0.575,0.535,0.556,0.254,0.228,��,8.4,��
2015/04/27,10:50,0.537,0.335,0.574,0.536,0.556,0.253,0.228,��,8.8,��
2015/04/27,11:00,0.544,0.332,0.573,0.535,0.553,0.254,0.227,��,8.1,��
2015/04/27,11:10,0.549,0.331,0.572,0.535,0.555,0.255,0.226,��쐼,7.2,��
2015/04/27,11:20,0.547,0.329,0.574,0.534,0.554,0.254,0.229,��,8.5,��
2015/04/27,11:30,0.544,0.329,0.573,0.536,0.556,0.255,0.228,��,7.2,��
2015/04/27,11:40,0.543,0.332,0.572,0.539,0.556,0.253,0.228,��,7.8,��
2015/04/27,11:50,0.540,0.335,0.574,0.538,0.557,0.253,0.226,��,8.1,��
2015/04/27,12:00,0.539,0.335,0.576,0.540,0.557,0.253,0.228,��,8.5,��
2015/04/27,12:10,0.539,0.333,0.577,0.539,0.557,0.253,0.228,��,9.1,��
2015/04/27,12:20,0.549,0.333,0.576,0.537,0.557,0.254,0.226,��,8.3,��
2015/04/27,12:30,0.548,0.330,0.577,0.539,0.558,0.255,0.229,��,8.4,��
2015/04/27,12:40,0.545,0.331,0.575,0.538,0.557,0.255,0.230,��,7.3,��
2015/04/27,12:50,0.541,0.336,0.575,0.542,0.556,0.253,0.228,��,8.8,��
2015/04/27,13:00,0.543,0.336,0.576,0.541,0.557,0.253,0.228,��,9.2,��
2015/04/27,13:10,0.549,0.333,0.576,0.540,0.556,0.253,0.228,��,9.5,��
2015/04/27,13:20,0.548,0.332,0.575,0.537,0.558,0.255,0.228,��,9.8,��
2015/04/27,13:30,0.542,0.331,0.576,0.535,0.563,0.256,0.228,��,9.8,��
2015/04/27,13:40,0.540,0.332,0.575,0.535,0.564,0.254,0.229,��,10.7,��
2015/04/27,13:50,0.552,0.336,0.575,0.537,0.563,0.254,0.226,��,10.1,��
2015/04/27,14:00,0.548,0.333,0.575,0.543,0.557,0.254,0.228,��,10.6,��
2015/04/27,14:10,0.542,0.332,0.575,0.542,0.557,0.254,0.230,��,9.8,��
2015/04/27,14:20,0.538,0.331,0.575,0.538,0.554,0.254,0.228,��,10.5,��
2015/04/27,14:30,0.547,0.335,0.575,0.533,0.554,0.254,0.229,��,10.7,��
2015/04/27,14:40,0.547,0.336,0.576,0.537,0.561,0.255,0.228,��,10.3,��
2015/04/27,14:50,0.541,0.332,0.575,0.542,0.568,0.255,0.227,��,10.4,��
2015/04/27,15:00,0.547,0.331,0.580,0.542,0.563,0.254,0.230,��,10.3,��
2015/04/27,15:10,0.549,0.336,0.583,0.537,0.560,0.253,0.228,��,10.7,��
2015/04/27,15:20,0.544,0.335,0.583,0.543,0.556,0.255,0.228,��,10.4,��
2015/04/27,15:30,0.544,0.333,0.577,0.539,0.557,0.254,0.230,��,9.9,��
2015/04/27,15:40,0.549,0.333,0.576,0.536,0.555,0.254,0.228,��,10.9,��
2015/04/27,15:50,0.543,0.334,0.582,0.541,0.558,0.254,0.230,��,11.5,��
2015/04/27,16:00,0.544,0.334,0.583,0.540,0.565,0.254,0.229,��,11.0,��
2015/04/27,16:10,0.548,0.336,0.578,0.536,0.562,0.254,0.229,��,11.3,��
2015/04/27,16:20,0.544,0.337,0.581,0.544,0.557,0.253,0.229,��,11.3,��
2015/04/27,16:30,0.541,0.334,0.584,0.538,0.557,0.255,0.230,��,11.0,��
2015/04/27,16:40,0.550,0.337,0.576,0.537,0.562,0.255,0.229,��,10.7,��
2015/04/27,16:50,0.542,0.334,0.581,0.544,0.564,0.254,0.230,��쐼,10.8,��
2015/04/27,17:00,0.543,0.334,0.585,0.538,0.562,0.254,0.229,��쐼,10.7,��
2015/04/27,17:10,0.551,0.336,0.579,0.541,0.554,0.255,0.230,��쐼,10.1,��
2015/04/27,17:20,0.543,0.334,0.580,0.542,0.562,0.255,0.228,��쐼,10.2,��
2015/04/27,17:30,0.546,0.337,0.583,0.537,0.565,0.255,0.229,��쐼,9.5,��
2015/04/27,17:40,0.547,0.334,0.577,0.539,0.561,0.256,0.229,��쐼,8.9,��
2015/04/27,17:50,0.543,0.334,0.578,0.541,0.560,0.255,0.230,��쐼,8.1,��
2015/04/27,18:00,0.549,0.336,0.582,0.535,0.565,0.255,0.228,��쐼,8.0,��
2015/04/27,18:10,0.546,0.332,0.577,0.542,0.559,0.255,0.229,��쐼,8.1,��
2015/04/27,18:20,0.544,0.336,0.581,0.540,0.561,0.253,0.229,��쐼,7.3,��
2015/04/27,18:30,0.547,0.334,0.581,0.538,0.565,0.255,0.229,��쐼,5.3,��
2015/04/27,18:40,0.543,0.336,0.576,0.545,0.561,0.254,0.229,��쐼,3.0,��
2015/04/27,18:50,0.548,0.335,0.585,0.536,0.566,0.255,0.229,��쐼,2.1,��
2015/04/27,19:00,0.544,0.335,0.579,0.542,0.560,0.254,0.229,��쐼,0.6,��
2015/04/27,19:10,0.547,0.335,0.581,0.540,0.564,0.256,0.228,���쐼,1.1,��
2015/04/27,19:20,0.544,0.335,0.583,0.541,0.562,0.254,0.229,�k�k��,2.2,��
2015/04/27,19:30,0.546,0.336,0.579,0.541,0.560,0.256,0.229,�k�k��,2.4,��
2015/04/27,19:40,0.545,0.334,0.583,0.539,0.562,0.256,0.227,�k�k��,1.4,��
2015/04/27,19:50,0.543,0.336,0.577,0.542,0.560,0.255,0.229,�k�k��,1.0,��
2015/04/27,20:00,0.547,0.336,0.584,0.537,0.565,0.255,0.228,���쐼,1.1,��
2015/04/27,20:10,0.546,0.335,0.577,0.542,0.558,0.255,0.230,���k��,1.3,��
2015/04/27,20:20,0.548,0.336,0.585,0.539,0.565,0.255,0.228,��,2.5,��
2015/04/27,20:30,0.544,0.334,0.578,0.544,0.558,0.255,0.230,��,2.5,��
2015/04/27,20:40,0.547,0.336,0.580,0.539,0.564,0.254,0.228,�k��,2.2,��
2015/04/27,20:50,0.545,0.334,0.579,0.543,0.559,0.255,0.229,���k��,1.6,��
2015/04/27,21:00,0.548,0.337,0.581,0.538,0.563,0.254,0.228,��,2.2,��
2015/04/27,21:10,0.543,0.334,0.581,0.543,0.557,0.255,0.229,��,1.6,��
2015/04/27,21:20,0.546,0.337,0.581,0.538,0.564,0.254,0.230,���쐼,2.5,��
2015/04/27,21:30,0.544,0.336,0.581,0.541,0.558,0.255,0.230,�쐼,2.2,��
2015/04/27,21:40,0.548,0.336,0.583,0.539,0.563,0.255,0.228,-,CALM,��
2015/04/27,21:50,0.546,0.335,0.580,0.543,0.558,0.255,0.229,�쓌,1.1,��
2015/04/27,22:00,0.547,0.335,0.581,0.538,0.564,0.256,0.229,��,1.4,��
2015/04/27,22:10,0.546,0.336,0.577,0.543,0.558,0.254,0.228,�쐼,1.4,��
2015/04/27,22:20,0.547,0.335,0.582,0.539,0.563,0.255,0.229,��쐼,0.9,��
2015/04/27,22:30,0.547,0.336,0.580,0.542,0.556,0.255,0.229,-,CALM,��
2015/04/27,22:40,0.546,0.334,0.583,0.539,0.564,0.254,0.229,��쐼,2.3,��
2015/04/27,22:50,0.545,0.337,0.579,0.542,0.556,0.256,0.230,��쐼,2.5,��
2015/04/27,23:00,0.546,0.335,0.582,0.541,0.564,0.255,0.228,�쐼,1.4,��
2015/04/27,23:10,0.547,0.334,0.578,0.540,0.557,0.255,0.229,��쐼,1.4,��
2015/04/27,23:20,0.544,0.336,0.582,0.539,0.563,0.256,0.229,���쐼,1.9,��
2015/04/27,23:30,0.549,0.335,0.578,0.542,0.557,0.254,0.228,���쐼,2.9,��
2015/04/27,23:40,0.543,0.338,0.583,0.540,0.564,0.255,0.227,��,2.9,��
2015/04/27,23:50,0.549,0.334,0.579,0.540,0.557,0.254,0.228,���k��,3.3,��
